When you browse on this site, cookies collect data to enhance your experience and personalize the content and advertising you see.
Visit our Privacy Policy to learn more. By continuing to use the site, you agree to this use of cookies and data.
  • En España
  • Lista de países
  • Para 7 días
  • Temperatura del agua
  • Mapa Satelital
  • El tiempo en el mapa
  • Informadores
  • user-avatar
    Iniciar sesión

    Tiempo cada hora Madrid

    Hoy, 19 Abril, Viernes

    Tiempo Temperatura Precipitaciones Viento Presión Humedad
    00:00 +9°C° 0 mm 3 mps 703 mmHg 88%
    01:00 +9°C° 0.2 mm 3 mps 703 mmHg 88%
    02:00 +9°C° 0.2 mm 3 mps 704 mmHg 87%
    03:00 +9°C° 0.2 mm 3 mps 704 mmHg 87%
    04:00 +9°C° 0 mm 3 mps 704 mmHg 86%
    05:00 +9°C° 0 mm 3 mps 704 mmHg 85%
    06:00 +8°C° 0 mm 4 mps 705 mmHg 84%
    07:00 +10°C° 0 mm 4 mps 705 mmHg 80%
    08:00 +10°C° 0 mm 4 mps 705 mmHg 76%
    09:00 +11°C° 0 mm 4 mps 705 mmHg 72%
    10:00 +11°C° 0.4 mm 4 mps 705 mmHg 71%
    11:00 +12°C° 0.4 mm 5 mps 705 mmHg 71%
    12:00 +12°C° 0.4 mm 5 mps 706 mmHg 70%
    13:00 +12°C° 0.8 mm 4 mps 705 mmHg 71%
    14:00 +12°C° 0.8 mm 3 mps 705 mmHg 72%
    15:00 +13°C° 0.8 mm 2 mps 705 mmHg 73%
    16:00 +12°C° 1.2 mm 2 mps 705 mmHg 77%
    17:00 +12°C° 1.2 mm 2 mps 706 mmHg 81%
    18:00 +12°C° 1.2 mm 2 mps 706 mmHg 86%
    19:00 +11°C° 0.8 mm 4 mps 706 mmHg 83%
    20:00 +12°C° 0.8 mm 5 mps 707 mmHg 80%
    21:00 +11°C° 0.8 mm 6 mps 708 mmHg 77%
    22:00 +11°C° 0.1 mm 6 mps 708 mmHg 74%
    23:00 +11°C° 0.1 mm 7 mps 708 mmHg 72%

    Mañana, 20 Abril, Sábado

    Tiempo Temperatura Precipitaciones Viento Presión Humedad
    00:00 +11°C° 0.1 mm 7 mps 708 mmHg 70%
    01:00 +11°C° 0 mm 8 mps 707 mmHg 69%
    02:00 +11°C° 0 mm 9 mps 707 mmHg 67%
    03:00 +11°C° 0 mm 9 mps 707 mmHg 65%
    04:00 +11°C° 0 mm 9 mps 707 mmHg 65%
    05:00 +11°C° 0 mm 9 mps 706 mmHg 65%
    06:00 +10°C° 0 mm 8 mps 706 mmHg 65%
    07:00 +11°C° 0 mm 8 mps 706 mmHg 62%
    08:00 +12°C° 0 mm 8 mps 706 mmHg 59%
    09:00 +13°C° 0 mm 8 mps 706 mmHg 55%
    10:00 +16°C° 0 mm 9 mps 706 mmHg 49%
    11:00 +17°C° 0 mm 9 mps 706 mmHg 43%
    12:00 +19°C° 0 mm 10 mps 707 mmHg 37%
    13:00 +19°C° 0 mm 9 mps 706 mmHg 37%
    14:00 +19°C° 0 mm 9 mps 706 mmHg 38%
    15:00 +18°C° 0 mm 9 mps 706 mmHg 38%
    16:00 +17°C° 0.1 mm 8 mps 706 mmHg 43%
    17:00 +16°C° 0.1 mm 7 mps 706 mmHg 48%
    18:00 +15°C° 0.1 mm 6 mps 706 mmHg 53%
    19:00 +14°C° 0.3 mm 6 mps 706 mmHg 57%
    20:00 +13°C° 0.3 mm 6 mps 707 mmHg 60%
    21:00 +11°C° 0.3 mm 6 mps 707 mmHg 64%
    22:00 +10°C° 0.3 mm 6 mps 707 mmHg 66%
    23:00 +9°C° 0.3 mm 6 mps 706 mmHg 68%

    Pasado mañana, 21 Abril, Domingo

    Tiempo Temperatura Precipitaciones Viento Presión Humedad
    00:00 +9°C° 0.3 mm 7 mps 706 mmHg 71%
    01:00 +8°C° 0.1 mm 6 mps 705 mmHg 72%
    02:00 +8°C° 0.1 mm 6 mps 705 mmHg 72%
    03:00 +8°C° 0.1 mm 6 mps 704 mmHg 73%
    04:00 +8°C° 0 mm 6 mps 704 mmHg 73%
    05:00 +8°C° 0 mm 6 mps 704 mmHg 73%
    06:00 +8°C° 0 mm 6 mps 704 mmHg 73%
    07:00 +8°C° 0.2 mm 7 mps 704 mmHg 73%
    08:00 +9°C° 0.2 mm 7 mps 703 mmHg 72%
    09:00 +9°C° 0.2 mm 7 mps 703 mmHg 71%
    10:00 +10°C° 0.2 mm 7 mps 703 mmHg 68%
    11:00 +11°C° 0.2 mm 7 mps 703 mmHg 65%
    12:00 +12°C° 0.2 mm 7 mps 703 mmHg 62%
    13:00 +15°C° 0.1 mm 7 mps 703 mmHg 57%
    14:00 +16°C° 0.1 mm 7 mps 702 mmHg 53%
    15:00 +17°C° 0.1 mm 7 mps 702 mmHg 49%
    16:00 +16°C° 0.3 mm 6 mps 702 mmHg 52%
    17:00 +15°C° 0.3 mm 6 mps 701 mmHg 56%
    18:00 +14°C° 0.3 mm 6 mps 701 mmHg 59%
    19:00 +13°C° 0 mm 6 mps 701 mmHg 63%
    20:00 +11°C° 0 mm 6 mps 701 mmHg 66%
    21:00 +10°C° 0 mm 6 mps 702 mmHg 70%
    22:00 +10°C° 0 mm 5 mps 701 mmHg 70%
    23:00 +10°C° 0 mm 5 mps 701 mmHg 71%

    22 Abril, Lunes

    Tiempo Temperatura Precipitaciones Viento Presión Humedad
    00:00 +9°C° 0 mm 5 mps 701 mmHg 72%
    01:00 +10°C° 0 mm 4 mps 700 mmHg 72%
    02:00 +10°C° 0 mm 4 mps 700 mmHg 73%
    03:00 +10°C° 0 mm 3 mps 699 mmHg 74%
    04:00 +10°C° 0 mm 3 mps 699 mmHg 75%
    05:00 +9°C° 0 mm 3 mps 698 mmHg 76%
    06:00 +9°C° 0 mm 2 mps 698 mmHg 78%
    07:00 +12°C° 0 mm 2 mps 698 mmHg 72%
    08:00 +13°C° 0 mm 1 mps 698 mmHg 65%
    09:00 +14°C° 0 mm 1 mps 697 mmHg 59%
    10:00 +15°C° 0 mm 1 mps 697 mmHg 55%
    11:00 +16°C° 0 mm 2 mps 697 mmHg 52%
    12:00 +17°C° 0 mm 2 mps 696 mmHg 48%
    13:00 +18°C° 0 mm 3 mps 696 mmHg 45%
    14:00 +19°C° 0 mm 3 mps 695 mmHg 43%
    15:00 +20°C° 0 mm 3 mps 694 mmHg 40%
    16:00 +19°C° 0.1 mm 4 mps 694 mmHg 42%
    17:00 +19°C° 0.1 mm 4 mps 694 mmHg 43%
    18:00 +19°C° 0.1 mm 5 mps 694 mmHg 45%
    19:00 +16°C° 0.1 mm 5 mps 694 mmHg 51%
    20:00 +15°C° 0.1 mm 4 mps 694 mmHg 56%
    21:00 +14°C° 0.1 mm 4 mps 694 mmHg 62%
    22:00 +13°C° 0 mm 4 mps 694 mmHg 66%
    23:00 +13°C° 0 mm 4 mps 693 mmHg 69%

    23 Abril, Martes

    Tiempo Temperatura Precipitaciones Viento Presión Humedad
    00:00 +12°C° 0 mm 5 mps 693 mmHg 73%
    01:00 +12°C° 0 mm 5 mps 693 mmHg 72%
    02:00 +10°C° 0 mm 5 mps 693 mmHg 71%
    03:00 +9°C° 0 mm 5 mps 692 mmHg 70%
    04:00 +10°C° 0 mm 4 mps 692 mmHg 75%
    05:00 +10°C° 0 mm 4 mps 692 mmHg 79%
    06:00 +9°C° 0 mm 3 mps 692 mmHg 84%
    07:00 +8°C° 1.2 mm 4 mps 692 mmHg 82%
    08:00 +8°C° 1.2 mm 5 mps 693 mmHg 81%
    09:00 +8°C° 1.2 mm 5 mps 693 mmHg 80%
    10:00 +9°C° 0.1 mm 6 mps 694 mmHg 67%
    11:00 +10°C° 0.1 mm 7 mps 694 mmHg 54%
    12:00 +11°C° 0.1 mm 8 mps 695 mmHg 41%
    13:00 +11°C° 0 mm 8 mps 695 mmHg 38%
    14:00 +12°C° 0 mm 8 mps 695 mmHg 35%
    15:00 +12°C° 0 mm 8 mps 694 mmHg 32%
    16:00 +12°C° 0 mm 7 mps 695 mmHg 34%
    17:00 +11°C° 0 mm 7 mps 695 mmHg 36%
    18:00 +11°C° 0 mm 6 mps 695 mmHg 37%
    19:00 +10°C° 0 mm 5 mps 696 mmHg 41%
    20:00 +9°C° 0 mm 5 mps 696 mmHg 45%
    21:00 +7°C° 0 mm 4 mps 697 mmHg 49%
    22:00 +7°C° 0 mm 4 mps 697 mmHg 53%
    23:00 +7°C° 0 mm 3 mps 697 mmHg 57%

    24 Abril, Miércoles

    Tiempo Temperatura Precipitaciones Viento Presión Humedad
    00:00 +5°C° 0 mm 3 mps 698 mmHg 61%
    01:00 +6°C° 0 mm 2 mps 698 mmHg 64%
    02:00 +6°C° 0 mm 2 mps 698 mmHg 68%
    03:00 +6°C° 0 mm 1 mps 698 mmHg 72%
    04:00 +7°C° 0.1 mm 1 mps 698 mmHg 73%
    05:00 +7°C° 0.1 mm 1 mps 698 mmHg 74%
    06:00 +7°C° 0.1 mm 1 mps 699 mmHg 75%
    07:00 +7°C° 0 mm 2 mps 699 mmHg 71%
    08:00 +8°C° 0 mm 2 mps 699 mmHg 67%
    09:00 +9°C° 0 mm 3 mps 699 mmHg 63%
    10:00 +10°C° 0.1 mm 3 mps 699 mmHg 60%
    11:00 +11°C° 0.1 mm 4 mps 699 mmHg 56%
    12:00 +11°C° 0.1 mm 4 mps 699 mmHg 53%
    13:00 +12°C° 0 mm 5 mps 699 mmHg 49%
    14:00 +13°C° 0 mm 6 mps 699 mmHg 45%
    15:00 +13°C° 0 mm 8 mps 699 mmHg 41%
    16:00 +13°C° 0.1 mm 8 mps 699 mmHg 45%
    17:00 +12°C° 0.1 mm 8 mps 699 mmHg 50%
    18:00 +11°C° 0.1 mm 8 mps 700 mmHg 54%
    19:00 +10°C° 0 mm 7 mps 701 mmHg 60%
    20:00 +9°C° 0 mm 6 mps 701 mmHg 66%
    21:00 +8°C° 0 mm 5 mps 702 mmHg 72%
    22:00 +8°C° 0 mm 5 mps 702 mmHg 75%
    23:00 +7°C° 0 mm 4 mps 703 mmHg 78%
    Mostrar más